Location: Blienschwiller
(48.3416°N, 7.4182°E)
Time: 17:03:56
(UTC+00:00)

Cosmos 1869 - Pass Details

Date: 18 February 2020
Orbit: 525 x 558 km, 82.5° (Epoch: 07 April)

Event Time Altitude Azimuth Distance (km) Brightness Sun altitude
Rises 05:49:44 0° 220° (SW) 2,712 6.5 -7.9°
Reaches altitude 10° 05:52:14 10° 234° (SW) 1,818 5.6 -7.5°
Maximum altitude 05:55:30 24° 289° (WNW) 1,163 4.4 -7.0°
Drops below altitude 10° 05:58:46 10° 344° (NNW) 1,813 5.7 -6.4°
Sets 06:01:15 0° 359° (N) 2,704 6.7 -6.0°
